sat.trackr.live / text

‹ back to catalog

STARLINK-2231

NORAD 48577 · 2021-041AA

PAYLOAD ACTIVE UNKNOWN

§ Identity

Operator
Country
US
Launch date
2021-05-15
Launch site
AFETR
Launch vehicle
Mass (kg)
RCS (m²)

Purposes: comms

External: N2YO · Heavens-Above · Gunter

§ Orbital elements

Epoch: 2026-05-25T05:11:53.279232Z

Period
94.01 min
Inclination
53.1587°
Eccentricity
0.0001237
Mean motion
15.31697960 rev/d
Perigee alt
469.9 km
Apogee alt
471.6 km
Semi-major
6,848.9 km
B*
3.0998e-4
RAAN
130.9824°
Arg perigee
92.9460°
Mean anomaly
267.1683°
Rev number
27,699

§ Raw data

STARLINK-22311 48577U 21041AA  26145.21658888  .00009265  00000+0  30998-3 0  99962 48577  53.1587 130.9824 0001237  92.9460 267.1683 15.31697960276995

JSON: /api/v1/satellites/48577 · /tle

For live sub-satellite position, see the globe view (requires WebGL).

§ Visibility from observer

Set your observer location to see the next 7 days of passes ≥ 10°. The values pass through the URL so the page stays shareable.

No JS? Fill the form by hand. The geolocation button needs JavaScript.